Home > Weather > Shawinigan > Past weeks

Flag for Canada Past Weather in Shawinigan, Quebec, Canada — Yesterday and Last 2 Weeks

Now
49 °F

Cool.


Feels Like: 49 °F
Forecast: 50 / 71 °F
Wind: 3 mph from Northwest

Location: Shawinigan CS

Current Time: May 26, 2016 at 6:57:46 AM

Latest Report: May 26, 2016 at 6:00 AM


Visibility: N/A

Pressure: 30.13 "Hg

Humidity: 84%

Dew Point: 45 °F

Location of ShawiniganLocation

Past Weather in Shawinigan — Graph

°F

Shawinigan Temperature Yesterday

Maximum temperature yesterday: 73 °F (at 4:00 PM)
Minimum temperature yesterday: 50 °F (at 5:00 AM)
Average temperature yesterday: 62 °F

High & Low Weather Summary for the Past Weeks

 TemperatureHumidityPressure
High84 °F (May 24, 4:00 PM)100% (May 14, 4:00 AM)30.22 "Hg (May 14, 4:00 AM)
Low31 °F (May 16, 6:00 AM)15% (May 24, 5:00 PM)29.44 "Hg (May 15, 4:00 AM)
Average56 °F59%29.92 "Hg
* Reported May 11 5:00 AM — May 26 5:00 AM, Shawinigan, Weather by CustomWeather, © 2016

Note: Actual official high and low records may vary slightly from our data, if they occured in-between our weather recording intervals... More about our weather records

Advertising

Shawinigan Weather History for the Previous 24 Hours

Scroll right to see more
 ConditionsComfort  
Time TempWeatherWind HumidityBarometerVisibility
5:00 AM
Thu, May 26
48 °FCool.5 mph86%30.11 "HgN/A
4:00 AM48 °FCool.6 mph85%30.10 "HgN/A
3:00 AM49 °FCool.3 mph85%30.10 "HgN/A
2:00 AM52 °FCool.3 mph79%30.09 "HgN/A
1:00 AM53 °FCool.5 mph76%30.07 "HgN/A
12:00 AM53 °FCool.5 mph78%30.06 "HgN/A
11:00 PM
Wed, May 25
56 °FCool.3 mph70%30.05 "HgN/A
10:00 PM60 °FCool.3 mph62%30.04 "HgN/A
9:00 PM62 °FCool.3 mph65%30.02 "HgN/A
8:00 PM64 °FMild.5 mph61%30.00 "HgN/A
7:00 PM66 °FMild.9 mph55%30.00 "HgN/A
6:00 PM69 °FMild.12 mph56%29.97 "HgN/A
5:00 PM71 °FMild.10 mph51%29.95 "HgN/A
4:00 PM73 °FMild.7 mph57%29.93 "HgN/A
3:00 PM71 °FMild.8 mph57%29.91 "HgN/A
2:00 PM69 °FMild.8 mph61%29.91 "HgN/A
1:00 PM71 °FMild.9 mph60%29.90 "HgN/A
12:00 PM71 °FMild.7 mph54%29.90 "HgN/A
11:00 AM72 °FMild.6 mph49%29.89 "HgN/A
10:00 AM67 °FMild.5 mph58%29.88 "HgN/A
9:00 AM62 °FCool.5 mph66%29.88 "HgN/A
8:00 AM56 °FCool.1 mph78%29.86 "HgN/A
7:00 AM53 °FCool.2 mph79%29.85 "HgN/A
6:00 AM51 °FCool.1 mph80%29.85 "HgN/A
Weather by CustomWeather, © 2016

See weather overviewHow to use our weather pages